Retour au catalogue

STARLINK-3341

ActifCommunicationsVLEO
NORAD 50817·PAYLOAD·🇺🇸 United States

Lancé Jan 6, 2022 depuis Cape Canaveral Space Force Station

Loading…

Prochains Passages (prochaines 24 heures)

TLE

FraisSource: CelesTrak SupGP

Époque: Sep 15, 2026, 01:49 UTC

1 50817C 22001Q   26258.07618056 -.00018057  00000+0 -51653-3 0  2585
2 50817  53.1594  27.5107 0001191  83.9176 320.4837 15.35413916    14

Suivez STARLINK-3341 en temps réel avec AllMySat

Download on the App Store